Brisbane, Australia

10:06 PM AEST on March 25, 2017 (GMT +1000)
Brisbane International

Weather History for YBBN - April, 2014

Change the Weather History Date:

Monday, April 21, 2014

  Actual Average Record
Temperature  
Mean Temperature 70 °F -  
Max Temperature 81 °F 76 °F 87 °F (2002)
Min Temperature 59 °F 59 °F 51 °F (2013)
Cooling Degree Days 5    
Growing Degree Days 20 (Base 50)    
Moisture  
Dew Point 60 °F    
Average Humidity 69    
Maximum Humidity 88    
Minimum Humidity 35    
Precipitation  
Precipitation 0.00 in 0.13 in - ()
Sea Level Pressure  
Sea Level Pressure 30.10 in    
Wind  
Wind Speed 6 mph ()    
Max Wind Speed 15 mph    
Max Gust Speed 18 mph    
Visibility 8.2 miles    
Events      
Averages and records for this station are not official NWS values.
T = Trace of Precipitation, MM = Missing Value Source: Averaged Metar Reports

Daily Weather History Graph

Daily Weather History Graph

Search for Another Location

Airport or City:

Trip Planner

Search our weather history database for the weather conditions in past years. The results will help you decide how hot, cold, wet, or windy it might be!

Date:

Astronomy

Apr. 21, 2014 Rise Set
Actual Time 6:07 AM AEST 5:25 PM AEST
Civil Twilight 5:43 AM AEST 5:48 PM AEST
Nautical Twilight 5:16 AM AEST 6:16 PM AEST
Astronomical Twilight 4:48 AM AEST 6:43 PM AEST
Moon 10:41 PM AEST (4/21) 11:27 AM AEST (4/21)
Length of Visible Light 12h 05m
Length of Day
11h 17m
Waning Gibbous, 64% of the Moon is Illuminated
Apr 21
Waning Gibbous
Apr 22
Last Quarter
Apr 29
New
May 7
First Quarter
May 15
Full

Hourly Weather History & Observations

Time (AEST) Temp. Heat Index Dew Point Humidity Pressure Visibility Wind Dir Wind Speed Gust Speed Precip Events Conditions
12:00 AM 64 °F - 60 °F 81% 30.08 in 19 mi West 1.2 mph - -   Partly Cloudy
12:00 AM 64.4 °F - 59.0 °F 83% 30.06 in - West 1.2 mph - N/A   Clear
12:30 AM 64.4 °F - 59.0 °F 83% 30.06 in - Calm Calm - N/A   Clear
1:00 AM 64 °F - 59 °F 78% 30.08 in - WNW 1.2 mph - -  
1:00 AM 64.4 °F - 59.0 °F 83% 30.06 in - WNW 1.2 mph - N/A   Clear
1:30 AM 64.4 °F - 59.0 °F 83% 30.06 in - Calm Calm - N/A   Clear
2:00 AM 62.6 °F - 59.0 °F 88% 30.06 in - Calm Calm - N/A   Clear
2:30 AM 60.8 °F - 57.2 °F 88% 30.06 in - SW 4.6 mph - N/A   Clear
3:00 AM 63 °F - 59 °F 84% 30.07 in 19 mi South 3.5 mph - -   Partly Cloudy
3:00 AM 62.6 °F - 59.0 °F 88% 30.06 in - South 3.5 mph - N/A   Clear
3:30 AM 62.6 °F - 57.2 °F 82% 30.06 in - South 5.8 mph - N/A   Clear
4:00 AM 63 °F - 57 °F 76% 30.08 in - SSW 6.9 mph - -  
4:00 AM 62.6 °F - 57.2 °F 82% 30.06 in - SSW 6.9 mph - N/A   Clear
4:30 AM 60.8 °F - 57.2 °F 88% 30.06 in - SSW 6.9 mph - N/A   Clear
5:00 AM 60.8 °F - 57.2 °F 88% 30.09 in - SSW 6.9 mph - N/A   Clear
5:30 AM 60.8 °F - 57.2 °F 88% 30.09 in 6.2 mi SSW 5.8 mph - N/A   Partly Cloudy
6:00 AM 60 °F - 57 °F 86% 30.12 in 19 mi SSW 6.9 mph - -   Partly Cloudy
6:00 AM 60.8 °F - 57.2 °F 88% 30.09 in 6.2 mi SSW 6.9 mph - N/A   Partly Cloudy
6:30 AM 60.8 °F - 57.2 °F 88% 30.12 in 6.2 mi SSW 5.8 mph - N/A   Partly Cloudy
7:00 AM 63 °F - 57 °F 76% 30.14 in - South 6.9 mph - -  
7:00 AM 62.6 °F - 57.2 °F 82% 30.12 in 6.2 mi South 6.9 mph - N/A   Unknown
7:30 AM 64.4 °F - 59.0 °F 83% 30.12 in - SSW 8.1 mph - N/A   Clear
8:00 AM 66.2 °F - 57.2 °F 73% 30.15 in - SSW 8.1 mph - N/A   Clear
8:30 AM 69.8 °F - 59.0 °F 68% 30.15 in - SSW 5.8 mph - N/A   Clear
9:00 AM 73 °F - 58 °F 49% 30.16 in 22 mi SSW 8.1 mph - -   Partly Cloudy
9:00 AM 73.4 °F - 57.2 °F 57% 30.15 in 6.2 mi SSW 8.1 mph - N/A   Partly Cloudy
9:30 AM 75.2 °F - 57.2 °F 53% 30.15 in 6.2 mi SSW 5.8 mph - N/A   Partly Cloudy
10:00 AM 77 °F - 58 °F 42% 30.16 in - West 2.3 mph - -  
10:00 AM 77.0 °F - 59.0 °F 54% 30.15 in 6.2 mi West 2.3 mph - N/A   Partly Cloudy
10:30 AM 78.8 °F - 59.0 °F 51% 30.12 in 6.2 mi NW 6.9 mph 18.4 mph N/A   Partly Cloudy
11:00 AM 78.8 °F - 57.2 °F 47% 30.12 in 6.2 mi North 9.2 mph - N/A   Partly Cloudy
11:30 AM 80.6 °F 80.8 °F 57.2 °F 45% 30.12 in 6.2 mi North 9.2 mph - N/A   Partly Cloudy
12:00 PM 80 °F - 59 °F 38% 30.12 in 25 mi North 10.4 mph - -   Partly Cloudy
12:00 PM 80.6 °F 81.1 °F 59.0 °F 48% 30.09 in - North 10.4 mph - N/A   Clear
12:30 PM 80.6 °F 81.1 °F 59.0 °F 48% 30.09 in - NNE 10.4 mph - N/A   Clear
1:00 PM 81 °F - 58 °F 35% 30.09 in - NNE 10.4 mph - -  
1:00 PM 80.6 °F 81.1 °F 59.0 °F 48% 30.06 in - NNE 10.4 mph - N/A   Clear
1:30 PM 80.6 °F 80.8 °F 57.2 °F 45% 30.06 in - NNE 11.5 mph - N/A   Clear
2:00 PM 80.6 °F 80.8 °F 57.2 °F 45% 30.06 in - NNE 12.7 mph - N/A   Clear
2:30 PM 80.6 °F 81.5 °F 60.8 °F 51% 30.06 in - NNE 13.8 mph - N/A   Clear
3:00 PM 78 °F - 60 °F 43% 30.06 in 25 mi NNE 15.0 mph - -   Partly Cloudy
3:00 PM 78.8 °F - 59.0 °F 51% 30.04 in - NNE 15.0 mph - N/A   Clear
3:30 PM 78.8 °F - 60.8 °F 54% 30.04 in - NNE 13.8 mph - N/A   Clear
4:00 PM 77 °F - 63 °F 52% 30.07 in - NNE 13.8 mph - -  
4:00 PM 77.0 °F - 62.6 °F 61% 30.06 in 6.2 mi NNE 13.8 mph - N/A   Partly Cloudy
4:30 PM 75.2 °F - 62.6 °F 65% 30.06 in 6.2 mi NNE 15.0 mph - N/A   Partly Cloudy
5:00 PM 75.2 °F - 62.6 °F 65% 30.06 in 6.2 mi NNE 13.8 mph - N/A   Partly Cloudy
5:30 PM 73.4 °F - 62.6 °F 69% 30.06 in 6.2 mi North 15.0 mph - N/A   Partly Cloudy
6:00 PM 73 °F - 62 °F 60% 30.10 in 25 mi NNE 12.7 mph - -   Partly Cloudy
6:00 PM 73.4 °F - 62.6 °F 69% 30.09 in 6.2 mi North 12.7 mph - N/A   Partly Cloudy
6:30 PM 73.4 °F - 62.6 °F 69% 30.09 in 6.2 mi North 13.8 mph - N/A   Partly Cloudy
7:00 PM 73 °F - 63 °F 63% 30.12 in - North 15.0 mph - -  
7:00 PM 73.4 °F - 62.6 °F 69% 30.09 in - North 15.0 mph - N/A   Clear
7:30 PM 71.6 °F - 64.4 °F 78% 30.12 in - North 12.7 mph - N/A   Clear
8:00 PM 71.6 °F - 62.6 °F 73% 30.12 in - North 10.4 mph - N/A   Clear
8:30 PM 71.6 °F - 62.6 °F 73% 30.12 in - North 12.7 mph - N/A   Clear
9:00 PM 70 °F - 63 °F 73% 30.14 in 25 mi NNW 9.2 mph - -   Partly Cloudy
9:00 PM 69.8 °F - 62.6 °F 78% 30.12 in - NNW 9.2 mph - N/A   Clear
9:30 PM 69.8 °F - 62.6 °F 78% 30.12 in - NW 4.6 mph - N/A   Clear
10:00 PM 68 °F - 62 °F 75% 30.15 in - NW 4.6 mph - -  
10:00 PM 68.0 °F - 62.6 °F 83% 30.15 in - NW 4.6 mph - N/A   Clear
10:30 PM 66.2 °F - 62.6 °F 88% 30.12 in - NW 5.8 mph - N/A   Clear
11:00 PM 66.2 °F - 62.6 °F 88% 30.12 in - NW 3.5 mph - N/A   Clear
11:30 PM 66.2 °F - 60.8 °F 83% 30.12 in - WNW 4.6 mph - N/A   Clear